| time (UTC) | temp F | wind direction | speed MPH | gust MPH | rain 1hr in | rain 24hr in | rain mn in | humidity % | barometer mb |
| 20260505221529 | 62 | 152 | 4.0 | 7.0 | 0.05 | 0.27 | 0.27 | 95 | 1006.8 |
| 20260505220045 | 62 | 181 | 6.0 | 10.0 | 0.07 | 0.27 | 0.27 | 94 | 1006.9 |
| 20260505220015 | 62 | 186 | 5.0 | 18.0 | 0.06 | 0.27 | 0.27 | 94 | 1009.0 |
| 20260505214532 | 63 | 196 | 3.0 | 10.0 | 0.06 | 0.26 | 0.26 | 93 | 1006.9 |
| 20260505213029 | 64 | 184 | 6.0 | 13.0 | 0.06 | 0.26 | 0.26 | 92 | 1006.9 |
| 20260505213016 | 64 | 199 | 7.0 | 18.0 | 0.06 | 0.26 | 0.26 | 92 | 1009.0 |
| 20260505211527 | 65 | 211 | 9.0 | 17.0 | 0.02 | 0.22 | 0.22 | 89 | 1006.7 |
| 20260505210025 | 67 | 183 | 7.0 | 16.0 | 0.00 | 0.20 | 0.20 | 83 | 1006.6 |
| 20260505210015 | 68 | 194 | 7.0 | 17.0 | 0.00 | 0.20 | 0.20 | 83 | 1008.7 |
| 20260505204525 | 68 | 195 | 6.0 | 17.0 | 0.00 | 0.20 | 0.20 | 82 | 1006.3 |
| 20260505203021 | 68 | 225 | 7.0 | 15.0 | 0.00 | 0.20 | 0.20 | 83 | 1006.5 |
| 20260505201519 | 68 | 186 | 7.0 | 15.0 | 0.00 | 0.20 | 0.20 | 84 | 1006.8 |
| 20260505200018 | 68 | 186 | 4.0 | 17.0 | 0.01 | 0.20 | 0.20 | 85 | 1006.9 |
| 20260505200015 | 68 | 197 | 9.0 | 25.0 | 0.01 | 0.20 | 0.20 | 85 | 1009.2 |
| 20260505194521 | 68 | 167 | 8.0 | 21.0 | 0.01 | 0.20 | 0.20 | 84 | 1006.9 |
| 20260505193025 | 68 | 184 | 8.0 | 23.0 | 0.01 | 0.20 | 0.20 | 84 | 1006.8 |
| 20260505193015 | 68 | 190 | 10.0 | 25.0 | 0.01 | 0.20 | 0.20 | 84 | 1009.0 |
| 20260505191514 | 67 | 213 | 12.0 | 24.0 | 0.01 | 0.20 | 0.20 | 86 | 1007.0 |
| 20260505190015 | 66 | 191 | 7.0 | 19.0 | 0.00 | 0.19 | 0.19 | 89 | 1009.5 |
| 20260505190009 | 66 | 150 | 5.0 | 15.0 | 0.00 | 0.19 | 0.19 | 89 | 1007.5 |
| 20260505184508 | 65 | 198 | 10.0 | 15.0 | 0.00 | 0.19 | 0.19 | 88 | 1007.7 |
| 20260505183035 | 65 | 191 | 7.0 | 19.0 | 0.00 | 0.19 | 0.19 | 89 | 1009.9 |
| 20260505183007 | 65 | 197 | 8.0 | 19.0 | 0.00 | 0.19 | 0.19 | 89 | 1007.9 |
| 20260505181507 | 66 | 210 | 6.0 | 13.0 | 0.00 | 0.19 | 0.19 | 90 | 1008.2 |
| 20260505180015 | 65 | 196 | 6.0 | 16.0 | 0.00 | 0.19 | 0.19 | 91 | 1010.7 |
| 20260505180006 | 65 | 172 | 5.0 | 12.0 | 0.00 | 0.19 | 0.19 | 91 | 1008.6 |
| 20260505174505 | 65 | 226 | 5.0 | 13.0 | 0.00 | 0.19 | 0.19 | 91 | 1008.6 |
| 20260505173015 | 64 | 193 | 4.0 | 12.0 | 0.00 | 0.19 | 0.19 | 95 | 1010.8 |
| 20260505173006 | 64 | 236 | 4.0 | 12.0 | 0.00 | 0.19 | 0.19 | 95 | 1008.7 |
| 20260505171503 | 61 | 193 | 2.0 | 10.0 | 0.00 | 0.19 | 0.19 | 95 | 1009.1 |
| 20260505170100 | 60 | 160 | 3.0 | 9.0 | 0.00 | 0.19 | 0.19 | 94 | 1009.3 |
| 20260505170020 | 60 | 191 | 3.0 | 10.0 | 0.00 | 0.19 | 0.19 | 94 | 1011.3 |
| 20260505164604 | 60 | 187 | 4.0 | 10.0 | 0.00 | 0.19 | 0.19 | 94 | 1009.2 |
| 20260505163056 | 60 | 216 | 3.0 | 7.0 | 0.00 | 0.19 | 0.19 | 95 | 1009.0 |
| 20260505163015 | 60 | 190 | 3.0 | 12.0 | 0.00 | 0.19 | 0.19 | 95 | 1011.1 |
| 20260505161559 | 60 | 172 | 3.0 | 8.0 | 0.01 | 0.19 | 0.19 | 94 | 1009.0 |
| 20260505153106 | 59 | 157 | 4.0 | 8.0 | 0.13 | 0.19 | 0.19 | 94 | 1008.9 |
| 20260505153015 | 59 | 155 | 3.0 | 9.0 | 0.14 | 0.19 | 0.19 | 94 | 1011.1 |
| 20260505151548 | 59 | 181 | 2.0 | 7.0 | 0.17 | 0.18 | 0.18 | 93 | 1009.2 |
| 20260505124535 | 60 | 182 | 3.0 | 8.0 | 0.00 | 0.00 | 0.00 | 79 | 1008.9 |
| 20260505123024 | 60 | 176 | 4.0 | 10.0 | 0.00 | 0.00 | 0.00 | 79 | 1008.7 |
| 20260505123017 | 60 | 186 | 4.0 | 11.0 | 0.00 | 0.00 | 0.00 | 79 | 1010.9 |
| 20260505121523 | 60 | 189 | 3.0 | 7.0 | 0.00 | 0.00 | 0.00 | 79 | 1008.6 |
| 20260505120025 | 60 | 186 | 3.0 | 8.0 | 0.00 | 0.00 | 0.00 | 79 | 1008.5 |
| 20260505120017 | 60 | 180 | 3.0 | 9.0 | 0.00 | 0.00 | 0.00 | 79 | 1010.7 |
| 20260505114520 | 59 | 184 | 3.0 | 7.0 | 0.00 | 0.00 | 0.00 | 79 | 1008.3 |
| 20260505113018 | 59 | 148 | 3.0 | 6.0 | 0.00 | 0.00 | 0.00 | 79 | 1008.2 |
| 20260505111516 | 59 | 189 | 3.0 | 6.0 | 0.00 | 0.00 | 0.00 | 80 | 1008.2 |
| 20260505101512 | 59 | 183 | 0.0 | 2.0 | 0.00 | 0.00 | 0.00 | 78 | 1008.2 |
| 20260505100021 | 59 | 0.0 | 2.0 | 0.00 | 0.00 | 0.00 | 77 | 1010.6 | |
| 20260505100012 | 59 | 183 | 0.0 | 0.0 | 0.00 | 0.00 | 0.00 | 77 | 1008.4 |
| 20260505094510 | 59 | 183 | 0.0 | 0.0 | 0.00 | 0.00 | 0.00 | 76 | 1008.3 |
| 20260505093016 | 60 | 183 | 0.0 | 2.0 | 0.00 | 0.00 | 0.00 | 75 | 1010.4 |
| 20260505093005 | 60 | 183 | 0.0 | 0.0 | 0.00 | 0.00 | 0.00 | 75 | 1008.1 |
| 20260505091503 | 61 | 183 | 0.0 | 2.0 | 0.00 | 0.00 | 0.00 | 73 | 1008.2 |
| 20260505090101 | 62 | 184 | 0.0 | 2.0 | 0.00 | 0.00 | 0.00 | 72 | 1008.3 |
| 20260505090016 | 62 | 183 | 0.0 | 9.0 | 0.00 | 0.00 | 0.00 | 71 | 1010.6 |
| 20260505084557 | 63 | 184 | 0.0 | 1.0 | 0.00 | 0.00 | 0.00 | 69 | 1008.2 |
| 20260505083057 | 64 | 184 | 0.0 | 4.0 | 0.00 | 0.00 | 0.00 | 68 | 1008.0 |
| 20260505083016 | 64 | 208 | 2.0 | 14.0 | 0.00 | 0.00 | 0.00 | 68 | 1010.3 |
| 20260505081553 | 64 | 200 | 3.0 | 8.0 | 0.00 | 0.00 | 0.00 | 67 | 1007.9 |
| 20260505080054 | 65 | 217 | 3.0 | 10.0 | 0.00 | 0.00 | 0.00 | 67 | 1007.7 |
| 20260505080016 | 65 | 208 | 5.0 | 17.0 | 0.00 | 0.00 | 0.00 | 67 | 1010.0 |
| 20260505074548 | 65 | 229 | 5.0 | 14.0 | 0.00 | 0.00 | 0.00 | 66 | 1007.5 |
| 20260505073047 | 65 | 214 | 6.0 | 13.0 | 0.00 | 0.00 | 0.00 | 65 | 1007.5 |
| 20260505073016 | 65 | 204 | 5.0 | 17.0 | 0.00 | 0.00 | 0.00 | 65 | 1009.9 |
| 20260505071544 | 66 | 207 | 5.0 | 17.0 | 0.00 | 0.00 | 0.00 | 65 | 1007.7 |
| 20260505070045 | 66 | 178 | 5.0 | 13.0 | 0.00 | 0.00 | 0.00 | 64 | 1007.9 |
| 20260505070016 | 66 | 208 | 6.0 | 14.0 | 0.00 | 0.00 | 0.00 | 64 | 1010.1 |
| 20260505064539 | 66 | 211 | 6.0 | 12.0 | 0.00 | 0.00 | 0.00 | 64 | 1007.9 |
| 20260505063038 | 66 | 165 | 6.0 | 12.0 | 0.00 | 0.00 | 0.00 | 64 | 1008.0 |
| 20260505063021 | 66 | 210 | 6.0 | 13.0 | 0.00 | 0.00 | 0.00 | 64 | 1010.2 |
| 20260505061534 | 66 | 231 | 7.0 | 12.0 | 0.00 | 0.00 | 0.00 | 64 | 1008.4 |
| 20260505060036 | 66 | 219 | 4.0 | 12.0 | 0.00 | 0.00 | 0.00 | 63 | 1008.6 |
| 20260505060016 | 66 | 212 | 5.0 | 13.0 | 0.00 | 0.00 | 0.00 | 63 | 1010.9 |
| 20260505054528 | 66 | 217 | 5.0 | 11.0 | 0.00 | 0.00 | 0.00 | 63 | 1008.7 |
| 20260505053036 | 66 | 206 | 4.0 | 14.0 | 0.00 | 0.00 | 0.00 | 63 | 1011.1 |
| 20260505053032 | 66 | 205 | 4.0 | 10.0 | 0.00 | 0.00 | 0.00 | 63 | 1008.7 |
| 20260505051524 | 67 | 207 | 3.0 | 12.0 | 0.00 | 0.00 | 0.00 | 62 | 1008.9 |
| 20260505041520 | 69 | 238 | 5.0 | 11.0 | 0.00 | 0.00 | 0.00 | 59 | 1009.0 |
| 20260505040020 | 69 | 205 | 4.0 | 11.0 | 0.00 | 0.00 | 0.00 | 59 | 1008.8 |
| 20260505040016 | 69 | 205 | 5.0 | 13.0 | 0.00 | 0.00 | 0.00 | 58 | 1011.1 |
| 20260505034524 | 69 | 212 | 5.0 | 12.0 | 0.00 | 0.00 | 0.00 | 58 | 1008.9 |
| 20260505033018 | 69 | 254 | 6.0 | 13.0 | 0.00 | 0.00 | 0.00 | 58 | 1008.8 |
| 20260505033016 | 70 | 202 | 5.0 | 13.0 | 0.00 | 0.00 | 0.00 | 57 | 1010.9 |
| 20260505031518 | 70 | 205 | 6.0 | 11.0 | 0.00 | 0.00 | 0.00 | 57 | 1008.5 |
| 20260505030021 | 70 | 203 | 5.0 | 13.0 | 0.00 | 0.00 | 0.00 | 57 | 1010.5 |
| 20260505030018 | 70 | 233 | 6.0 | 12.0 | 0.00 | 0.00 | 0.00 | 57 | 1008.4 |
| 20260505024517 | 70 | 202 | 5.0 | 10.0 | 0.00 | 0.00 | 0.00 | 57 | 1008.3 |
| 20260505023016 | 70 | 198 | 5.0 | 13.0 | 0.00 | 0.00 | 0.00 | 56 | 1010.4 |
| 20260505021516 | 70 | 195 | 3.0 | 13.0 | 0.00 | 0.00 | 0.00 | 57 | 1008.1 |
| 20260505020016 | 71 | 196 | 4.0 | 12.0 | 0.00 | 0.00 | 0.00 | 56 | 1009.8 |
| 20260505014513 | 71 | 184 | 4.0 | 11.0 | 0.00 | 0.00 | 0.00 | 55 | 1007.5 |
| 20260505013016 | 72 | 197 | 4.0 | 12.0 | 0.00 | 0.00 | 0.00 | 54 | 1009.7 |
| 20260505013013 | 72 | 196 | 4.0 | 7.0 | 0.00 | 0.00 | 0.00 | 54 | 1007.5 |
| 20260505011527 | 72 | 197 | 4.0 | 11.0 | 0.00 | 0.00 | 0.00 | 53 | 1007.5 |
| 20260505010016 | 73 | 214 | 3.0 | 10.0 | 0.00 | 0.00 | 0.00 | 52 | 1007.5 |
| 20260505004510 | 73 | 195 | 6.0 | 11.0 | 0.00 | 0.00 | 0.00 | 51 | 1007.6 |
| 20260505003015 | 74 | 198 | 4.0 | 14.0 | 0.00 | 0.00 | 0.00 | 51 | 1009.6 |
| 20260505003009 | 74 | 206 | 4.0 | 8.0 | 0.00 | 0.00 | 0.00 | 51 | 1007.6 |
| 20260505001510 | 75 | 207 | 4.0 | 10.0 | 0.00 | 0.00 | 0.00 | 50 | 1007.6 |
| 20260505000015 | 76 | 203 | 5.0 | 16.0 | 0.00 | 0.00 | 0.00 | 48 | 1009.6 |
| 20260505000008 | 76 | 158 | 4.0 | 11.0 | 0.00 | 0.00 | 0.00 | 48 | 1007.7 |
| 20260504234506 | 77 | 224 | 6.0 | 10.0 | 0.00 | 0.00 | 0.00 | 47 | 1007.8 |
| 20260504233020 | 77 | 213 | 7.0 | 18.0 | 0.00 | 0.00 | 0.00 | 46 | 1010.1 |
| 20260504233004 | 77 | 198 | 5.0 | 14.0 | 0.00 | 0.00 | 0.00 | 46 | 1008.1 |
| 20260504231504 | 77 | 200 | 6.0 | 16.0 | 0.00 | 0.00 | 0.00 | 46 | 1008.3 |
| 20260504230015 | 77 | 217 | 7.0 | 19.0 | 0.00 | 0.00 | 0.00 | 46 | 1010.4 |
| 20260504230002 | 77 | 210 | 8.0 | 17.0 | 0.00 | 0.00 | 0.00 | 46 | 1008.3 |
| 20260504224601 | 78 | 158 | 7.0 | 17.0 | 0.00 | 0.00 | 0.00 | 45 | 1008.4 |
| 20260504224503 | 78 | 238 | 6.0 | 17.0 | 0.00 | 0.00 | 0.00 | 45 | 1008.4 |
| 20260504223100 | 78 | 207 | 6.0 | 18.0 | 0.00 | 0.00 | 0.00 | 47 | 1008.4 |
| 20260504223015 | 78 | 229 | 8.0 | 19.0 | 0.00 | 0.00 | 0.00 | 45 | 1010.4 |